DateTimeUTC,F1_A11,F1_S11,BsB_S11,BsG_S11,BsR_S11,BbsB_S11,BbsG_S11,BbsR_S11,BaB_A11,BaG_A11,BaR_A11,Tu_S11,T_S11,Uu_S11,U_S11,P_S11,T1_A11
2021-08-06T21:00:00Z,00000200,20000000,,,,,,,-000.21,-000.17,-000.17,19.0,25.9,02.3,01.5,0666.4,31.1
2021-08-06T21:01:00Z,00000200,20000000,,,,,,,0000.90,0000.42,0000.17,19.0,25.9,02.3,01.5,0666.4,31.1
2021-08-06T21:02:00Z,00000200,20000000,,,,,,,0000.27,0000.30,0000.87,19.0,25.9,02.3,01.5,0666.4,31.1
2021-08-06T21:03:00Z,00000200,60000000,,,,,,,0000.88,0001.05,0000.44,19.0,25.9,02.3,01.5,0666.4,31.1
2021-08-06T21:04:00Z,00000200,40000000,0005.66,0004.14,0002.77,0001.00,0000.96,0000.73,0001.42,0001.38,0000.97,19.1,25.7,02.7,01.8,0667.3,31.1
2021-08-06T21:05:00Z,00000200,00000000,0005.83,0003.97,0002.32,0001.13,0000.53,0000.76,0001.40,0001.30,0001.08,19.2,25.7,02.7,01.8,0667.4,31.1
2021-08-06T21:06:00Z,00000200,00000000,0004.87,0004.04,0002.34,0001.33,0000.48,0000.41,0001.36,0001.33,0001.15,19.2,25.7,02.9,01.9,0667.4,31.1
2021-08-06T21:07:00Z,00000200,00000000,0005.09,0004.12,0002.36,0000.63,0000.89,0000.31,0001.19,0001.24,0000.90,19.1,25.6,02.9,02.0,0667.4,31.1
2021-08-06T21:08:00Z,00000200,00000000,0006.24,0003.97,0002.20,0000.79,0000.58,0000.89,0001.26,0001.22,0001.15,19.1,25.6,02.9,02.0,0667.4,31.1
2021-08-06T21:09:00Z,00000200,00000000,0005.85,0004.03,0002.46,0001.08,0000.66,0000.55,0001.38,0001.05,0000.66,19.1,25.6,03.0,02.0,0667.4,31.1
2021-08-06T21:10:00Z,00000200,00000000,0005.80,0004.16,0002.53,0001.24,0000.49,0000.93,0001.61,0001.38,0001.24,19.1,25.6,03.0,02.0,0667.4,31.1
2021-08-06T21:11:00Z,00000200,00000000,0005.94,0004.37,0002.61,0001.20,0000.76,0000.42,0001.33,0001.39,0000.75,19.1,25.6,02.9,02.0,0667.4,31.1
2021-08-06T21:12:00Z,00000200,00000000,0006.55,0004.68,0002.44,0001.30,0000.41,0000.62,0001.07,0000.55,0000.73,19.1,25.6,02.9,01.9,0667.4,31.0
2021-08-06T21:13:00Z,00000200,00000000,0006.52,0004.65,0002.47,0000.69,0000.43,0000.76,0001.51,0001.40,0000.91,19.1,25.6,02.8,01.9,0667.4,31.1
2021-08-06T21:14:00Z,00000200,00000000,0005.95,0004.14,0002.56,0000.43,0000.41,0000.85,0001.35,0001.23,0001.14,19.1,25.6,02.9,02.0,0667.4,31.1
2021-08-06T21:15:00Z,00000200,00000000,0006.57,0004.38,0002.72,0000.80,0000.83,0000.58,0000.64,0000.55,-000.11,19.1,25.6,02.6,01.8,0667.4,31.1
2021-08-06T21:16:00Z,00000200,00000000,0006.80,0004.59,0002.63,0001.14,0000.75,0000.39,0001.26,0001.01,0000.71,19.1,25.6,02.4,01.6,0667.4,31.1
2021-08-06T21:17:00Z,00000200,00000000,0007.18,0004.39,0002.58,0001.21,0000.60,0000.62,0001.21,0001.10,0001.23,19.1,25.6,02.6,01.7,0667.4,31.1
2021-08-06T21:18:00Z,00000200,00000000,0006.68,0004.33,0002.98,0001.56,0000.65,0000.48,0001.91,0001.91,0001.15,19.1,25.5,02.6,01.7,0667.4,31.1
2021-08-06T21:19:00Z,00000200,00000000,0006.68,0004.78,0002.51,0001.43,0000.74,0000.65,0001.52,0001.40,0001.26,19.1,25.5,02.5,01.7,0667.4,31.1
2021-08-06T21:20:00Z,00000200,00000000,0007.05,0004.51,0002.35,0001.48,0000.89,0000.30,0001.33,0001.19,0001.22,19.1,25.5,02.8,01.9,0667.4,31.1
2021-08-06T21:21:00Z,00000200,00000000,0005.85,0004.60,0002.42,0000.70,0000.70,0000.93,0000.95,0001.03,0000.19,19.1,25.5,02.7,01.8,0667.4,31.1
2021-08-06T21:22:00Z,00000200,00000000,0006.44,0004.33,0002.45,0001.32,0000.65,0000.69,0001.28,0000.80,0000.77,19.1,25.5,02.6,01.8,0667.4,31.1
2021-08-06T21:23:00Z,00000200,00000000,0006.69,0004.53,0002.30,0001.38,0000.60,0000.45,0001.64,0001.23,0001.31,19.0,25.5,02.5,01.7,0667.4,31.1
2021-08-06T21:24:00Z,00000200,00000000,0006.33,0004.18,0002.70,0001.11,0000.52,0000.55,0001.13,0001.44,0001.01,19.0,25.5,02.6,01.7,0667.4,31.1
2021-08-06T21:25:00Z,00000200,00000000,0006.59,0004.42,0002.71,0000.88,0000.55,0000.56,0001.58,0001.26,0000.56,19.0,25.5,02.5,01.7,0667.4,31.0
2021-08-06T21:26:00Z,00000200,00000000,0006.75,0004.37,0002.76,0000.98,0000.60,0000.66,0001.72,0001.82,0001.66,19.0,25.5,02.6,01.8,0667.4,31.0
2021-08-06T21:27:00Z,00000200,00000000,0007.05,0004.71,0003.04,0001.80,0000.59,0000.48,0000.27,-000.08,-000.25,19.0,25.5,02.4,01.6,0667.4,31.1
2021-08-06T21:28:00Z,00000200,00000000,0007.04,0005.04,0003.18,0000.83,0000.97,0000.80,0001.55,0001.56,0001.10,19.1,25.5,02.2,01.5,0667.4,31.1
2021-08-06T21:29:00Z,00000200,00000000,0006.55,0004.90,0003.18,0001.63,0000.57,0000.96,0001.23,0000.78,0000.57,19.1,25.5,02.2,01.5,0667.4,31.0
2021-08-06T21:30:00Z,00000200,00000000,0006.47,0004.94,0002.82,0000.48,0000.59,0000.49,0001.38,0001.27,0000.76,19.1,25.5,02.0,01.4,0667.4,31.0
2021-08-06T21:31:00Z,00000200,01000000,0007.44,0004.84,0002.85,0001.44,0000.57,0000.41,0001.58,0001.68,0001.15,19.0,25.5,01.8,01.2,0667.4,31.0
2021-08-06T21:32:00Z,00000200,00000000,0006.39,0004.50,0002.77,0001.23,0000.47,0000.25,0003.30,0003.11,0003.15,19.0,25.5,02.3,01.5,0667.4,31.0
2021-08-06T21:33:00Z,00000200,00000000,0006.86,0004.27,0002.57,0000.53,0000.55,0000.36,0001.52,0001.25,0000.89,19.0,25.5,02.7,01.8,0667.4,31.1
2021-08-06T21:34:00Z,00000200,00000000,0006.72,0004.90,0002.82,0000.40,0000.56,0000.72,0000.53,0000.68,0000.24,19.0,25.5,02.7,01.8,0667.4,31.1
2021-08-06T21:35:00Z,00000200,00000000,0007.46,0004.48,0003.27,0000.94,0000.67,0000.75,0001.36,0000.97,0000.71,19.0,25.5,02.4,01.6,0667.4,31.1
2021-08-06T21:36:00Z,00000200,00000000,0006.86,0005.00,0003.02,0000.55,0000.71,0000.53,0000.79,0001.21,0000.64,19.0,25.4,02.2,01.5,0667.4,31.1
2021-08-06T21:37:00Z,00000200,00000000,0006.87,0004.97,0002.97,0001.59,0000.56,0000.63,0001.91,0001.28,0001.10,19.0,25.5,02.1,01.4,0667.4,31.1
2021-08-06T21:38:00Z,00000200,00000000,0006.77,0005.05,0002.71,0001.00,0000.76,0000.67,0002.01,0002.02,0001.73,19.0,25.5,02.4,01.6,0667.4,31.1
2021-08-06T21:39:00Z,00000200,00000000,0007.16,0004.64,0003.03,0001.29,0000.50,0000.51,0001.69,0001.57,0001.32,19.0,25.5,02.4,01.6,0667.4,31.1
2021-08-06T21:40:00Z,00000200,00000000,0006.42,0004.93,0002.79,0000.41,0000.45,0000.57,0002.74,0002.24,0002.31,19.0,25.5,02.5,01.7,0667.4,31.0
2021-08-06T21:41:00Z,00000200,00000000,0006.96,0004.45,0002.59,0001.54,0000.74,0000.49,0001.91,0002.17,0001.35,19.0,25.5,03.1,02.1,0667.4,31.1
2021-08-06T21:42:00Z,00000200,00000000,0006.01,0004.22,0002.60,0000.45,0000.56,0000.56,0001.87,0002.09,0001.56,19.0,25.5,03.2,02.1,0667.4,31.0
2021-08-06T21:43:00Z,00000200,00000000,0007.26,0004.74,0002.59,0001.26,0000.48,0000.58,0001.00,0000.52,0000.47,19.0,25.5,03.3,02.2,0667.4,31.0
2021-08-06T21:44:00Z,00000200,00000000,0006.76,0004.77,0002.70,0001.01,0000.67,0000.98,0001.34,0001.21,0000.66,19.0,25.4,03.1,02.1,0667.4,31.1
2021-08-06T21:45:00Z,00000200,00000000,0006.50,0004.73,0002.53,0001.26,0000.49,0000.16,0001.84,0001.74,0001.75,19.0,25.4,03.2,02.1,0667.4,31.0
2021-08-06T21:46:00Z,00000200,00000000,0006.76,0004.94,0002.54,0001.16,0000.64,0001.05,0001.98,0001.76,0001.21,19.0,25.4,03.3,02.2,0667.4,31.0
2021-08-06T21:47:00Z,00000200,00000000,0007.16,0004.56,0003.15,0001.02,0000.38,0001.00,0001.83,0001.54,0001.66,19.0,25.4,03.6,02.4,0667.4,31.1
2021-08-06T21:48:00Z,00000200,00000000,0007.40,0004.81,0002.80,0001.03,0000.53,0000.57,0001.23,0001.44,0000.65,19.0,25.4,03.6,02.4,0667.4,31.0
2021-08-06T21:49:00Z,00000200,00000000,0007.13,0004.52,0002.83,0000.57,0000.76,0000.44,0001.57,0001.37,0001.10,19.0,25.4,03.4,02.3,0667.4,31.0
2021-08-06T21:50:00Z,00000200,00000000,0006.54,0004.50,0003.20,0001.37,0000.80,0001.19,0001.10,0001.01,0000.26,19.0,25.4,03.4,02.3,0667.3,31.0
2021-08-06T21:51:00Z,00000200,00000000,0007.73,0005.04,0003.04,0000.98,0000.86,0000.60,0001.87,0001.75,0001.48,19.0,25.4,03.3,02.2,0667.3,31.0
2021-08-06T21:52:00Z,00000200,00000000,0006.98,0004.84,0002.90,0000.73,0000.59,0000.42,0001.84,0001.53,0001.26,19.0,25.4,03.4,02.3,0667.3,31.0
2021-08-06T21:53:00Z,00000200,00000000,0006.68,0005.03,0002.91,0001.09,0000.50,0000.88,0000.41,0000.32,-000.13,19.0,25.4,03.3,02.2,0667.3,31.0
2021-08-06T21:54:00Z,00000200,00000000,0006.90,0005.10,0002.80,0000.84,0000.76,0000.53,0001.24,0001.02,0000.97,19.0,25.4,03.0,02.0,0667.3,31.0
2021-08-06T21:55:00Z,00000200,00000000,0006.68,0005.21,0002.70,0000.71,0000.84,0000.54,-000.48,-000.58,-000.94,18.9,25.4,02.6,01.8,0667.3,31.0
2021-08-06T21:56:00Z,00000200,00000000,0006.95,0004.72,0003.31,0000.69,0000.67,0000.65,0001.79,0001.62,0001.30,18.9,25.4,02.2,01.5,0667.3,31.1
2021-08-06T21:57:00Z,00000200,40000000,,,,,,,0000.76,0000.57,0000.43,19.0,25.4,02.2,01.5,0667.3,31.1
2021-08-06T21:58:00Z,00000200,60000000,,,,,,,-000.75,-000.51,-000.33,18.7,25.5,02.1,01.4,0666.3,31.0
2021-08-06T21:59:00Z,00000200,20000000,,,,,,,-000.02,0000.27,-000.36,18.7,25.6,02.0,01.3,0666.3,31.0
